• In Netherlands
  • List of Countries
  • For 7 days
  • Water Temperature
  • Satellite Maps
  • Weather Map
  • Weather Widgets
  • user-avatar
    Login

    Hourly Weather Neuquén

    Today, 25 February, Saturday

    Time Temperature Precipitation Wind Pressure Humidity
    00:00 +24°C° 0 mm 8 mps 733 mmHg 60%
    01:00 +23°C° 0 mm 8 mps 733 mmHg 64%
    02:00 +23°C° 0 mm 7 mps 734 mmHg 67%
    03:00 +22°C° 0 mm 6 mps 734 mmHg 70%
    04:00 +22°C° 0 mm 5 mps 734 mmHg 72%
    05:00 +22°C° 0 mm 5 mps 734 mmHg 71%
    06:00 +22°C° 0 mm 4 mps 734 mmHg 70%
    07:00 +22°C° 0 mm 4 mps 734 mmHg 69%
    08:00 +25°C° 0 mm 3 mps 734 mmHg 63%
    09:00 +27°C° 0 mm 3 mps 734 mmHg 56%
    10:00 +29°C° 0 mm 2 mps 733 mmHg 50%
    11:00 +30°C° 0 mm 2 mps 733 mmHg 45%
    12:00 +33°C° 0 mm 3 mps 732 mmHg 40%
    13:00 +35°C° 0 mm 3 mps 731 mmHg 35%
    14:00 +36°C° 0 mm 3 mps 731 mmHg 33%
    15:00 +37°C° 0 mm 3 mps 730 mmHg 31%
    16:00 +38°C° 0 mm 4 mps 729 mmHg 30%
    17:00 +36°C° 0 mm 3 mps 729 mmHg 32%
    18:00 +35°C° 0 mm 3 mps 729 mmHg 34%
    19:00 +34°C° 0 mm 3 mps 729 mmHg 37%
    20:00 +33°C° 0.7 mm 3 mps 729 mmHg 40%
    21:00 +32°C° 0.7 mm 4 mps 729 mmHg 44%
    22:00 +30°C° 0.7 mm 5 mps 729 mmHg 48%
    23:00 +30°C° 0.7 mm 4 mps 729 mmHg 50%

    Tomorrow, 26 February, Sunday

    Time Temperature Precipitation Wind Pressure Humidity
    00:00 +29°C° 0.7 mm 4 mps 729 mmHg 53%
    01:00 +29°C° 0.7 mm 4 mps 729 mmHg 55%
    02:00 +29°C° 0.1 mm 4 mps 729 mmHg 55%
    03:00 +29°C° 0.1 mm 3 mps 728 mmHg 56%
    04:00 +28°C° 0.1 mm 3 mps 728 mmHg 56%
    05:00 +29°C° 0.1 mm 3 mps 728 mmHg 54%
    06:00 +30°C° 0.1 mm 3 mps 729 mmHg 52%
    07:00 +30°C° 0.1 mm 3 mps 729 mmHg 50%
    08:00 +33°C° 0 mm 3 mps 729 mmHg 44%
    09:00 +35°C° 0 mm 3 mps 729 mmHg 38%
    10:00 +37°C° 0 mm 3 mps 729 mmHg 32%
    11:00 +38°C° 0 mm 4 mps 729 mmHg 30%
    12:00 +40°C° 0 mm 5 mps 728 mmHg 27%
    13:00 +40°C° 0 mm 5 mps 728 mmHg 24%
    14:00 +40°C° 0 mm 6 mps 728 mmHg 25%
    15:00 +39°C° 0 mm 6 mps 727 mmHg 25%
    16:00 +39°C° 0 mm 6 mps 727 mmHg 25%
    17:00 +36°C° 0.1 mm 6 mps 727 mmHg 31%
    18:00 +35°C° 0.1 mm 7 mps 727 mmHg 37%
    19:00 +33°C° 0.1 mm 7 mps 728 mmHg 42%
    20:00 +32°C° 0.2 mm 6 mps 728 mmHg 46%
    21:00 +30°C° 0.2 mm 5 mps 729 mmHg 49%
    22:00 +30°C° 0.2 mm 3 mps 729 mmHg 53%
    23:00 +29°C° 0.1 mm 5 mps 729 mmHg 46%

    Day after tomorrow, 27 February, Monday

    Time Temperature Precipitation Wind Pressure Humidity
    00:00 +29°C° 0.1 mm 6 mps 729 mmHg 40%
    01:00 +28°C° 0.1 mm 7 mps 728 mmHg 34%
    02:00 +28°C° 0.1 mm 7 mps 728 mmHg 32%
    03:00 +27°C° 0.1 mm 7 mps 729 mmHg 29%
    04:00 +27°C° 0.1 mm 7 mps 729 mmHg 27%
    05:00 +27°C° 0 mm 8 mps 729 mmHg 26%
    06:00 +28°C° 0 mm 8 mps 729 mmHg 25%
    07:00 +28°C° 0 mm 9 mps 730 mmHg 24%
    08:00 +29°C° 0 mm 9 mps 730 mmHg 22%
    09:00 +32°C° 0 mm 9 mps 730 mmHg 21%
    10:00 +33°C° 0 mm 9 mps 730 mmHg 20%
    11:00 +34°C° 0 mm 8 mps 730 mmHg 19%
    12:00 +35°C° 0 mm 8 mps 730 mmHg 18%
    13:00 +37°C° 0 mm 8 mps 729 mmHg 17%
    14:00 +38°C° 0 mm 7 mps 729 mmHg 17%
    15:00 +38°C° 0 mm 7 mps 728 mmHg 16%
    16:00 +38°C° 0 mm 6 mps 728 mmHg 16%
    17:00 +36°C° 0 mm 6 mps 728 mmHg 18%
    18:00 +34°C° 0 mm 6 mps 728 mmHg 20%
    19:00 +33°C° 0 mm 5 mps 728 mmHg 22%
    20:00 +32°C° 0 mm 6 mps 729 mmHg 25%
    21:00 +30°C° 0 mm 6 mps 729 mmHg 28%
    22:00 +29°C° 0 mm 7 mps 729 mmHg 31%
    23:00 +28°C° 0 mm 6 mps 729 mmHg 34%

    28 February, Tuesday

    Time Temperature Precipitation Wind Pressure Humidity
    00:00 +28°C° 0 mm 6 mps 729 mmHg 36%
    01:00 +27°C° 0 mm 5 mps 729 mmHg 39%
    02:00 +26°C° 0 mm 5 mps 729 mmHg 41%
    03:00 +26°C° 0 mm 4 mps 729 mmHg 43%
    04:00 +25°C° 0 mm 4 mps 729 mmHg 46%
    05:00 +26°C° 0 mm 4 mps 729 mmHg 45%
    06:00 +26°C° 0 mm 4 mps 729 mmHg 43%
    07:00 +27°C° 0 mm 4 mps 729 mmHg 42%
    08:00 +29°C° 0 mm 6 mps 729 mmHg 37%
    09:00 +32°C° 0 mm 7 mps 728 mmHg 33%
    10:00 +34°C° 0 mm 9 mps 728 mmHg 28%
    11:00 +35°C° 0 mm 9 mps 727 mmHg 25%
    12:00 +37°C° 0 mm 9 mps 727 mmHg 22%
    13:00 +39°C° 0 mm 10 mps 726 mmHg 19%
    14:00 +39°C° 0 mm 10 mps 726 mmHg 19%
    15:00 +39°C° 0 mm 10 mps 726 mmHg 18%
    16:00 +39°C° 0 mm 10 mps 725 mmHg 17%
    17:00 +37°C° 0 mm 9 mps 726 mmHg 20%
    18:00 +34°C° 0 mm 8 mps 726 mmHg 24%
    19:00 +32°C° 0 mm 8 mps 726 mmHg 28%
    20:00 +31°C° 0 mm 8 mps 727 mmHg 32%
    21:00 +28°C° 0 mm 8 mps 727 mmHg 35%
    22:00 +27°C° 0 mm 7 mps 727 mmHg 39%
    23:00 +27°C° 0 mm 6 mps 727 mmHg 40%

    1 March, Wednesday

    Time Temperature Precipitation Wind Pressure Humidity
    00:00 +26°C° 0 mm 5 mps 727 mmHg 41%
    01:00 +26°C° 0 mm 4 mps 726 mmHg 42%
    02:00 +26°C° 0 mm 5 mps 726 mmHg 42%
    03:00 +26°C° 0 mm 5 mps 726 mmHg 41%
    04:00 +26°C° 0 mm 5 mps 726 mmHg 41%
    05:00 +26°C° 0 mm 5 mps 726 mmHg 41%
    06:00 +26°C° 0 mm 5 mps 727 mmHg 41%
    07:00 +26°C° 0 mm 5 mps 727 mmHg 41%
    08:00 +26°C° 0 mm 5 mps 727 mmHg 41%
    09:00 +26°C° 0 mm 5 mps 727 mmHg 40%
    10:00 +27°C° 0 mm 5 mps 727 mmHg 40%
    11:00 +28°C° 0 mm 6 mps 726 mmHg 37%
    12:00 +29°C° 0 mm 7 mps 726 mmHg 34%
    13:00 +31°C° 0 mm 9 mps 725 mmHg 31%
    14:00 +31°C° 0 mm 10 mps 725 mmHg 29%
    15:00 +32°C° 0 mm 11 mps 725 mmHg 27%
    16:00 +32°C° 0 mm 11 mps 725 mmHg 25%
    17:00 +29°C° 0 mm 11 mps 726 mmHg 26%
    18:00 +27°C° 0 mm 11 mps 726 mmHg 26%
    19:00 +24°C° 0 mm 10 mps 727 mmHg 27%
    20:00 +23°C° 0 mm 10 mps 727 mmHg 30%
    21:00 +21°C° 0 mm 11 mps 727 mmHg 34%
    22:00 +19°C° 0 mm 11 mps 728 mmHg 37%
    23:00 +18°C° 0 mm 10 mps 728 mmHg 37%

    2 March, Thursday

    Time Temperature Precipitation Wind Pressure Humidity
    00:00 +18°C° 0 mm 10 mps 728 mmHg 38%
    01:00 +17°C° 0 mm 10 mps 728 mmHg 38%
    02:00 +17°C° 0 mm 9 mps 728 mmHg 39%
    03:00 +16°C° 0 mm 8 mps 729 mmHg 40%
    04:00 +15°C° 0 mm 7 mps 729 mmHg 41%
    05:00 +16°C° 0 mm 7 mps 730 mmHg 40%
    06:00 +16°C° 0 mm 7 mps 730 mmHg 39%
    07:00 +17°C° 0 mm 8 mps 731 mmHg 38%
    08:00 +18°C° 0 mm 8 mps 731 mmHg 33%
    09:00 +21°C° 0 mm 8 mps 731 mmHg 28%
    10:00 +23°C° 0 mm 8 mps 731 mmHg 23%
    11:00 +24°C° 0 mm 8 mps 731 mmHg 21%
    12:00 +26°C° 0 mm 8 mps 730 mmHg 19%
    13:00 +27°C° 0 mm 8 mps 730 mmHg 17%
    14:00 +27°C° 0 mm 8 mps 730 mmHg 16%
    15:00 +27°C° 0 mm 8 mps 730 mmHg 16%
    16:00 +27°C° 0 mm 7 mps 729 mmHg 16%
    17:00 +26°C° 0 mm 7 mps 730 mmHg 19%
    18:00 +23°C° 0 mm 7 mps 731 mmHg 22%
    19:00 +22°C° 0 mm 7 mps 732 mmHg 25%
    20:00 +21°C° 0 mm 7 mps 732 mmHg 28%
    21:00 +20°C° 0 mm 8 mps 733 mmHg 31%
    22:00 +18°C° 0 mm 8 mps 734 mmHg 34%
    23:00 +17°C° 0 mm 8 mps 734 mmHg 36%
    Show more